Weather History for Joplin, MO

Change the Weather History Date:

Sunday, May 12, 2013

  Actual Average Record
Temperature  
Mean Temperature 51 °F 66 °F  
Max Temperature 65 °F 77 °F 88 °F (1963)
Min Temperature 37 °F 55 °F 33 °F (1960)
Degree Days  
Heating Degree Days 14 2  
Month to date heating degree days 134 39  
Since 1 July heating degree days 4238 4042  
Cooling Degree Days 0 3  
Month to date cooling degree days 8 32  
Year to date cooling degree days 38 86  
Moisture  
Dew Point 36 °F    
Average Humidity 60    
Maximum Humidity 92    
Minimum Humidity 28    
Precipitation  
Precipitation 0.00 in 0.19 in 1.43 in (2002)
Month to date precipitation 1.94 2.30  
Year to date precipitation 16.44 14.54  
Sea Level Pressure  
Sea Level Pressure 30.24 in    
Wind  
Wind Speed 3 mph (NE)    
Max Wind Speed 13 mph    
Max Gust Speed 18 mph    
Visibility 10 miles    
Events Fog    
T = Trace of Precipitation, MM = Missing Value Source: NWS Daily Summary

Daily Weather History Graph

Daily Weather History Graph

Search for Another Location

Airport:

Trip Planner

Search our weather history database for the weather conditions in past years. The results will help you decide how hot, cold, wet, or windy it might be!

Date:

Astronomy

May. 12, 2013 Rise Set
Actual Time 6:11 AM CDT 8:17 PM CDT
Civil Twilight 5:43 AM CDT 8:46 PM CDT
Nautical Twilight 5:07 AM CDT 9:21 PM CDT
Astronomical Twilight 4:29 AM CDT 9:59 PM CDT
Moon 8:08 AM CDT 10:44 PM CDT
Length of Visible Light 15h 03m
Length of Day
14h 05m
Waxing Crescent, 7% of the Moon is Illuminated
May 12
Waxing Crescent
May 17
First Quarter
May 24
Full
May 31
Last Quarter
Jun 8
New

Hourly Weather History & Observations

Time (CDT) Temp. Windchill Dew Point Humidity Pressure Visibility Wind Dir Wind Speed Gust Speed Precip Events Conditions
12:53 AM 46.9 °F - 34.0 °F 61% 30.24 in 10.0 mi NNW 4.6 mph - N/A   Clear
1:53 AM 44.1 °F - 36.0 °F 73% 30.25 in 10.0 mi Calm Calm - N/A   Clear
2:53 AM 44.1 °F 42.5 °F 35.1 °F 71% 30.24 in 10.0 mi NE 3.5 mph - N/A   Clear
3:53 AM 41.0 °F - 36.0 °F 82% 30.24 in 10.0 mi Calm Calm - N/A   Clear
4:53 AM 37.9 °F 35.5 °F 36.0 °F 93% 30.25 in 10.0 mi East 3.5 mph - N/A   Clear
5:53 AM 37.9 °F - 35.1 °F 89% 30.25 in 10.0 mi Calm Calm - N/A Fog Patches of Fog
6:53 AM 37.9 °F - 36.0 °F 93% 30.28 in 10.0 mi Calm Calm - N/A Fog Patches of Fog
7:53 AM 46.4 °F - 39.2 °F 76% 30.29 in 10.0 mi Calm Calm - N/A   Clear
8:53 AM 54.0 °F - 32.0 °F 43% 30.30 in 10.0 mi Variable 4.6 mph - N/A   Clear
9:53 AM 57.2 °F - 24.8 °F 29% 30.30 in 10.0 mi Variable 4.6 mph - N/A   Clear
10:53 AM 59.0 °F - 26.1 °F 28% 30.30 in 10.0 mi ENE 5.8 mph - N/A   Clear
11:53 AM 60.1 °F - 28.9 °F 31% 30.29 in 10.0 mi NNE 5.8 mph - N/A   Partly Cloudy
12:53 PM 61.0 °F - 33.1 °F 35% 30.27 in 10.0 mi North 5.8 mph - N/A   Mostly Cloudy
1:53 PM 63.0 °F - 34.0 °F 34% 30.26 in 10.0 mi North 5.8 mph - N/A   Clear
2:53 PM 64.0 °F - 34.0 °F 33% 30.23 in 10.0 mi Variable 3.5 mph - N/A   Clear
3:53 PM 61.0 °F - 36.0 °F 39% 30.24 in 10.0 mi Variable 4.6 mph - N/A   Overcast
4:53 PM 61.0 °F - 35.1 °F 38% 30.21 in 10.0 mi SW 3.5 mph - N/A   Mostly Cloudy
5:53 PM 62.1 °F - 37.9 °F 41% 30.18 in 10.0 mi South 6.9 mph - N/A   Partly Cloudy
6:53 PM 60.1 °F - 39.0 °F 46% 30.18 in 10.0 mi SW 8.1 mph - N/A   Mostly Cloudy
7:53 PM 57.0 °F - 41.0 °F 55% 30.18 in 10.0 mi Calm Calm - N/A   Mostly Cloudy
8:53 PM 55.9 °F - 39.9 °F 55% 30.19 in 10.0 mi Calm Calm - N/A   Clear
9:53 PM 51.1 °F - 43.0 °F 74% 30.19 in 10.0 mi Calm Calm - N/A   Clear
10:53 PM 48.0 °F - 42.1 °F 80% 30.19 in 10.0 mi East 5.8 mph - N/A   Clear
11:53 PM 48.9 °F - 41.0 °F 74% 30.17 in 10.0 mi East 5.8 mph - N/A   Clear